Mpanda Airport

Jump to: basic info | weather | comments

Related pages: nearby airports | nearby navaids | notams | map

Basic information (top)

Codes: HTMP
Location: lon -6.350000, lat 31.083000, elev 3,520 ft / 1,073 m msl
Status: small_airport

Weather (top)

Current conditions for Sumbawanga Airport 103nm (191km) SSE (rec'd 2014/11/23 08:00Z):

HTSU 230800Z 10008KT 9999 FEW018 FEW019CB BKN080 21/13 Q1025

Airport forecast for Julius Nyerere International Airport 485nm (899km) E (rec'd 2014/11/23 06:00Z):

TAF HTDA 230400Z 2306/2412 34005KT 9999 SCT024 FEW025CB PROB30 
      TEMPO 2307/2312 VRB10KT SHRA SCT025 FEW026CB BKN080 FM 231500 05005KT SCT024 FEW025CB 
      TEMPO 2402/2406 00000KT 8000 MIFG SCT023

Latest comments (top)

re: Uwanja wa ndege Mpanda: Thanks God Mpanda is on the right path, ... [read]

Uwanja wa ndege Mpanda: Uwanja ni mzuri saana, [read]

matengenezo: uwanja ukikamilika utakuwa mzuri.mmejitahidi. [read]

More... (top)

See also NOTAMs and nearby airports and navaids, or visit the Mpanda Airport page at the main OurAirports website..